Left ArrowRight Arrow

Hourly Observations for March 3, 2020

Temp ( °F °C ) Dew Point ( °F °C ) Humidity (%) Winds ( mph kmh ) Pressure ( in mb ) Visibility ( mi km ) Precip ( " mm )
12:53 am 00:53 Mostly Clear 29 -1.7 21 -6.1 72 72 SSE 6 9 29.78 1009 10 16 0.00 0.00
1:53 am 01:53 Clear 31 -0.6 19 -7.2 61 61 S 9 15 29.75 1007 10 16 0.00 0.00
2:53 am 02:53 Clear 28 -2.2 19 -7.2 69 69 S 7 11 29.73 1007 10 16 0.00 0.00
3:53 am 03:53 Clear 25 -3.9 17 -8.3 72 72 SW 3 6 29.71 1006 10 16 0.00 0.00
4:53 am 04:53 Mostly Clear 22 -5.6 14 -10 71 71 W 9 15 29.74 1007 10 16 0.00 0.00
5:53 am 05:53 Cloudy 30 -1.1 17 -8.3 58 58 S 3 6 29.68 1005 10 16 0.00 0.00
6:53 am 06:53 Cloudy 35 1.7 18 -7.8 50 50 Calm 29.68 1005 10 16 0.00 0.00
7:53 am 07:53 Cloudy 37 2.8 18 -7.8 46 46 SSE 7 11 29.67 1005 10 16 0.00 0.00
8:53 am 08:53 Cloudy 38 3.3 21 -6.1 51 51 NE 6 9 29.69 1005 10 16 0.00 0.00
9:53 am 09:53 Cloudy 35 1.7 24 -4.4 64 64 S 9 15 29.72 1006 10 16 0.00 0.00
10:21 am 10:21 Partly Cloudy 45 7.2 21 -6.1 39 39 NNW 20 31 29.65 1004 10 16 0.00 0.00
10:33 am 10:33 Mostly Cloudy 39 3.9 24 -4.4 55 55 E 10 17 29.71 1006 10 16 0.00 0.00
10:53 am 10:53 Cloudy 38 3.3 25 -3.9 60 60 SE 8 13 29.73 1007 10 16 0.00 0.00
11:53 am 11:53 Cloudy 42 5.6 23 -5 47 47 NNW 23 37 29.74 1007 10 16 0.00 0.00
12:53 pm 12:53 Cloudy 37 2.8 27 -2.8 67 67 N 30 48 29.80 1009 10 16 0.00 0.00
1:42 pm 13:42 Windy with Snow Likely 37 2.8 27 -2.8 67 67 NNW 28 44 29.83 1010 3 5 0.00 0.00
1:53 pm 13:53 Cloudy 38 3.3 27 -2.8 65 65 NNW 25 41 29.83 1010 9 14 0.00 0.00
2:36 pm 14:36 Cloudy with Light Rain 38 3.3 26 -3.3 62 62 NNW 14 22 29.87 1011 10 16 0.00 0.00
2:46 pm 14:46 Cloudy 39 3.9 26 -3.3 60 60 NNW 15 24 29.85 1011 10 16 0.00 0.00
2:53 pm 14:53 Mostly Cloudy 39 3.9 26 -3.3 60 60 NNW 15 24 29.87 1011 10 16 0.00 0.00
3:53 pm 15:53 Sunny 39 3.9 27 -2.8 62 62 E 7 11 29.91 1013 10 16 0.00 0.00
4:53 pm 16:53 Sunny 38 3.3 27 -2.8 65 65 S 3 6 29.94 1014 10 16 0.00 0.00
5:53 pm 17:53 Sunny 35 1.7 26 -3.3 70 70 SW 5 7 29.93 1014 10 16 0.00 0.00
6:53 pm 18:53 Clear 33 0.6 22 -5.6 64 64 SW 5 7 29.94 1014 10 16 0.00 0.00
7:53 pm 19:53 Clear 31 -0.6 20 -6.7 64 64 WSW 12 19 29.96 1015 10 16 0.00 0.00
8:53 pm 20:53 Clear 33 0.6 18 -7.8 54 54 SW 6 9 29.95 1014 10 16 0.00 0.00
9:53 pm 21:53 Clear 38 3.3 15 -9.4 39 39 Calm 29.93 1014 10 16 0.00 0.00
10:53 pm 22:53 Clear 31 -0.6 14 -10 49 49 Calm 29.93 1014 10 16 0.00 0.00
11:53 pm 23:53 Clear 38 3.3 16 -8.9 41 41 W 9 15 29.87 1011 10 16 0.00 0.00

Powered by Vaisala Xweather